Location: Newark
(44.5425°N, 10.7801°E)
Time: 15:22:51
(UTC+00:00)

N. Korean satellite - Pass Details

Date: 24 January 2020
Orbit: 456 x 506 km, 97.2° (Epoch: 17 February)

Event Time Altitude Azimuth Distance (km) Brightness Sun altitude
Rises 06:08:26 0° 356° (N) 2,530 10.0 -6.7°
Reaches altitude 10° 06:10:58 10° 336° (NNW) 1,657 8.9 -6.3°
Maximum altitude 06:13:24 18° 293° (WNW) 1,259 8.0 -5.9°
Drops below altitude 10° 06:15:50 10° 250° (WSW) 1,668 8.8 -5.5°
Sets 06:18:24 0° 230° (SW) 2,553 9.9 -5.0°
